Tracking 25734 objects as of 27-May-2022
HD Live streaming from Space Station
objects crossing your sky now

COSMOS 1818 COOLANT

Track COSMOS 1818 COOLANT now!
10-day predictions


NORAD ID: 50792
Int'l Code: 1987-011BH
Perigee: 771.9 km
Apogee: 797.2 km
Inclination: 65.0 °
Period: 100.4 minutes
Semi major axis: 7155 km
RCS: Unknown
Launch date: February 1, 1987
Source: Commonwealth of Independent States (former USSR) (CIS)
Launch site: TYURATAM MISSILE AND SPACE COMPLEX (TTMTR)

Note: This is SATELLITE DEBRIS
aabbcc
Your satellite tracking list
Your tracking list is empty




NASA's NSSDC Master Catalog

Two Line Element Set (TLE):
1 50792U 87011BH  22141.20945666  .00000905  00000-0  35677-3 0  9993
2 50792  65.0106  61.0711 0017626 253.6043 181.4430 14.34298118444592
Source of the keplerian elements: AFSPC